TimeCDT,TemperatureF,Dew PointF,Humidity,Sea Level PressureIn,VisibilityMPH,Wind Direction,Wind SpeedMPH,Gust SpeedMPH,PrecipitationIn,Events,Conditions,WindDirDegrees,DateUTC
12:52 AM,50.0,45.0,83,30.15,10.0,Calm,Calm,-,N/A,,Clear,0,2013-05-23 05:52:00
1:52 AM,45.0,42.1,90,30.15,10.0,Calm,Calm,-,N/A,,Clear,0,2013-05-23 06:52:00
2:52 AM,42.1,39.9,92,30.16,10.0,Calm,Calm,-,N/A,,Clear,0,2013-05-23 07:52:00
3:52 AM,44.1,42.1,93,30.17,10.0,North,8.1,-,N/A,,Clear,360,2013-05-23 08:52:00
4:52 AM,42.1,39.9,92,30.19,10.0,North,3.5,-,N/A,,Clear,360,2013-05-23 09:52:00
5:52 AM,39.9,37.9,93,30.19,10.0,Calm,Calm,-,N/A,,Clear,0,2013-05-23 10:52:00
6:52 AM,43.0,42.1,97,30.21,10.0,Calm,Calm,-,N/A,,Clear,0,2013-05-23 11:52:00
7:52 AM,46.9,44.1,90,30.22,10.0,Calm,Calm,-,N/A,,Clear,0,2013-05-23 12:52:00
8:52 AM,52.0,46.0,80,30.22,10.0,East,11.5,-,N/A,,Clear,90,2013-05-23 13:52:00
9:52 AM,57.9,46.9,67,30.22,10.0,SE,13.8,-,N/A,,Clear,130,2013-05-23 14:52:00
10:52 AM,63.0,48.0,58,30.22,10.0,East,11.5,-,N/A,,Clear,100,2013-05-23 15:52:00
11:52 AM,66.0,46.0,48,30.21,10.0,ESE,18.4,21.9,N/A,,Clear,120,2013-05-23 16:52:00
12:52 PM,66.9,44.1,44,30.20,10.0,East,11.5,23.0,N/A,,Clear,100,2013-05-23 17:52:00
1:52 PM,68.0,43.0,40,30.19,10.0,ESE,16.1,28.8,N/A,,Clear,110,2013-05-23 18:52:00
2:52 PM,69.1,43.0,39,30.18,10.0,ESE,20.7,24.2,N/A,,Clear,110,2013-05-23 19:52:00
3:52 PM,70.0,39.9,33,30.15,10.0,SSE,18.4,26.5,N/A,,Clear,160,2013-05-23 20:52:00
4:52 PM,70.0,43.0,38,30.14,10.0,SSE,16.1,-,N/A,,Clear,160,2013-05-23 21:52:00
5:52 PM,68.0,45.0,43,30.15,10.0,SSE,19.6,-,N/A,,Clear,160,2013-05-23 22:52:00
6:52 PM,68.0,45.0,43,30.14,10.0,SSE,19.6,-,N/A,,Clear,150,2013-05-23 23:52:00
7:52 PM,63.0,45.0,52,30.14,10.0,SSE,16.1,-,N/A,,Clear,150,2013-05-24 00:52:00
8:52 PM,61.0,45.0,56,30.14,10.0,SE,13.8,-,N/A,,Clear,130,2013-05-24 01:52:00
9:52 PM,57.9,44.1,60,30.14,10.0,SE,13.8,-,N/A,,Clear,130,2013-05-24 02:52:00
10:52 PM,57.0,44.1,62,30.14,10.0,SE,18.4,-,N/A,,Clear,130,2013-05-24 03:52:00
11:52 PM,55.0,44.1,67,30.14,10.0,ESE,20.7,-,N/A,,Clear,120,2013-05-24 04:52:00